User: anonymous   Login
Location: Avenches
(46.8809°N, 7.0410°E)
Time: 02:40:29
(UTC+00:00)
Language:

SL-8 Rocket - Orbit

View from above orbital plane
View from above orbital plane
View from above satellite
View from above satellite

Ground track
Ground track

The orbit data is extracted from the following two-line orbital elements,

1 21088U 91006B   20192.47899543 +.00000021 +00000-0 +56779-5 0  9990
2 21088 082.9427 268.0945 0023859 068.5397 302.1943 13.77149945479385
Epoch (UTC): 10 July 2020 11:29:45
Eccentricity: 0.0023859
inclination: 82.9427°
perigee height: 956 km
apogee height: 991 km
right ascension of ascending node: 268.0945°
argument of perigee: 68.5397°
revolutions per day: 13.77149945
mean anomaly at epoch: 302.1943°
orbit number at epoch: 47938

The dashed part of the orbit path shows where the satellite is in the earth's shadow,  

DLR